TimeCDT,TemperatureF,Dew PointF,Humidity,Sea Level PressureIn,VisibilityMPH,Wind Direction,Wind SpeedMPH,Gust SpeedMPH,PrecipitationIn,Events,Conditions,WindDirDegrees,DateUTC
12:15 AM,44.6,44.6,100,30.06,0.8,ENE,8.1,-,N/A,,Overcast,60,2013-04-17 05:15:00
12:35 AM,44.6,44.6,100,30.06,0.5,ENE,4.6,-,N/A,Fog,Fog,60,2013-04-17 05:35:00
12:55 AM,44.6,44.6,100,30.06,0.5,ENE,8.1,-,N/A,Fog,Fog,60,2013-04-17 05:55:00
1:15 AM,44.6,44.6,100,30.06,0.2,ENE,8.1,-,N/A,Fog,Fog,60,2013-04-17 06:15:00
1:35 AM,44.6,44.6,100,30.06,0.2,ENE,5.8,-,N/A,Fog,Fog,70,2013-04-17 06:35:00
1:55 AM,-9999,-9999,N/A,30.06,0.2,ENE,5.8,-,N/A,Fog,Fog,70,2013-04-17 06:55:00
2:15 AM,-9999,-9999,N/A,30.05,0.2,ENE,5.8,-,N/A,Fog,Fog,70,2013-04-17 07:15:00
2:35 AM,-9999,-9999,N/A,30.05,0.2,ENE,5.8,-,N/A,Fog,Fog,70,2013-04-17 07:35:00
2:55 AM,-9999,-9999,N/A,30.04,0.2,ENE,5.8,-,N/A,Fog,Fog,60,2013-04-17 07:55:00
3:15 AM,-9999,-9999,N/A,30.04,0.2,ENE,5.8,-,N/A,Fog,Fog,60,2013-04-17 08:15:00
3:35 AM,-9999,-9999,N/A,30.04,0.2,East,6.9,-,N/A,Fog,Fog,80,2013-04-17 08:35:00
3:55 AM,-9999,-9999,N/A,30.02,0.2,ENE,6.9,-,N/A,Fog,Fog,70,2013-04-17 08:55:00
4:15 AM,-9999,-9999,N/A,30.02,0.2,East,8.1,-,N/A,Fog,Fog,80,2013-04-17 09:15:00
4:35 AM,-9999,-9999,N/A,30.01,0.2,East,8.1,-,N/A,Fog,Fog,90,2013-04-17 09:35:00
4:55 AM,-9999,-9999,N/A,30.01,0.5,East,6.9,-,N/A,Fog,Fog,100,2013-04-17 09:55:00
5:15 AM,-9999,-9999,N/A,30.00,0.2,East,6.9,-,N/A,Fog,Fog,90,2013-04-17 10:15:00
5:35 AM,-9999,-9999,N/A,29.99,0.5,East,8.1,-,N/A,Fog,Fog,100,2013-04-17 10:35:00
5:55 AM,-9999,-9999,N/A,29.98,0.2,East,9.2,-,N/A,Fog,Fog,100,2013-04-17 10:55:00
6:15 AM,-9999,-9999,N/A,29.97,0.2,East,9.2,-,N/A,Fog,Fog,100,2013-04-17 11:15:00
6:35 AM,-9999,-9999,N/A,29.97,0.2,ESE,10.4,-,N/A,Fog,Fog,110,2013-04-17 11:35:00
6:55 AM,-9999,-9999,N/A,29.97,0.2,ESE,9.2,-,N/A,Fog,Fog,110,2013-04-17 11:55:00
7:15 AM,-9999,-9999,N/A,29.98,0.2,East,8.1,-,N/A,Fog,Fog,100,2013-04-17 12:15:00
7:35 AM,-9999,-9999,N/A,29.98,0.2,East,5.8,-,N/A,Fog,Fog,100,2013-04-17 12:35:00
7:55 AM,-9999,-9999,N/A,29.98,0.2,East,5.8,-,N/A,Fog,Fog,90,2013-04-17 12:55:00
8:15 AM,-9999,-9999,N/A,29.98,0.2,East,8.1,-,N/A,Fog,Fog,100,2013-04-17 13:15:00
8:35 AM,-9999,-9999,N/A,29.97,0.2,ESE,8.1,-,N/A,Fog,Fog,110,2013-04-17 13:35:00
9:15 AM,-9999,-9999,N/A,29.96,0.2,ESE,4.6,-,N/A,Fog,Fog,110,2013-04-17 14:15:00
9:35 AM,-9999,-9999,N/A,29.95,0.2,ESE,8.1,-,N/A,Fog,Fog,110,2013-04-17 14:35:00
9:55 AM,-9999,-9999,N/A,29.95,0.5,ESE,8.1,-,N/A,Fog,Fog,120,2013-04-17 14:55:00
10:15 AM,-9999,-9999,N/A,29.93,2.5,SE,10.4,-,N/A,,Overcast,130,2013-04-17 15:15:00
10:35 AM,-9999,-9999,N/A,29.92,4.0,SE,10.4,-,N/A,,Haze,130,2013-04-17 15:35:00
10:55 AM,-9999,-9999,N/A,29.92,5.0,SE,12.7,17.3,N/A,,Haze,130,2013-04-17 15:55:00
11:15 AM,71.6,71.6,100,29.91,7.0,SE,12.7,17.3,N/A,,Clear,140,2013-04-17 16:15:00
11:35 AM,75.2,69.8,83,29.90,10.0,South,15.0,18.4,N/A,,Clear,170,2013-04-17 16:35:00
11:55 AM,77.0,66.2,69,29.89,10.0,SSE,15.0,24.2,N/A,,Mostly Cloudy,160,2013-04-17 16:55:00
12:15 PM,77.0,66.2,69,29.88,10.0,SSE,15.0,23.0,N/A,,Overcast,160,2013-04-17 17:15:00
12:35 PM,77.0,64.4,65,29.88,10.0,SSE,16.1,23.0,N/A,,Overcast,160,2013-04-17 17:35:00
12:55 PM,78.8,64.4,61,29.86,10.0,SE,19.6,25.3,N/A,,Mostly Cloudy,140,2013-04-17 17:55:00
1:15 PM,80.6,64.4,58,29.84,10.0,SSE,19.6,24.2,N/A,,Mostly Cloudy,150,2013-04-17 18:15:00
1:35 PM,80.6,62.6,54,29.84,10.0,South,17.3,27.6,N/A,,Mostly Cloudy,170,2013-04-17 18:35:00
1:55 PM,80.6,62.6,54,29.82,10.0,SSE,18.4,26.5,N/A,,Overcast,160,2013-04-17 18:55:00
2:15 PM,80.6,62.6,54,29.82,10.0,SE,11.5,24.2,N/A,,Overcast,140,2013-04-17 19:15:00
2:35 PM,80.6,62.6,54,29.80,10.0,SSE,16.1,26.5,N/A,,Overcast,160,2013-04-17 19:35:00
2:55 PM,80.6,62.6,54,29.78,10.0,SE,20.7,29.9,N/A,,Overcast,130,2013-04-17 19:55:00
3:35 PM,78.8,62.6,57,29.76,10.0,SSE,11.5,20.7,N/A,,Overcast,150,2013-04-17 20:35:00
3:55 PM,78.8,60.8,54,29.76,10.0,SSE,15.0,19.6,N/A,,Overcast,160,2013-04-17 20:55:00
4:15 PM,78.8,62.6,57,29.74,10.0,SE,11.5,20.7,N/A,,Mostly Cloudy,140,2013-04-17 21:15:00
4:35 PM,80.6,62.6,54,29.72,10.0,SE,19.6,24.2,N/A,,Scattered Clouds,140,2013-04-17 21:35:00
4:55 PM,80.6,62.6,54,29.73,10.0,SSE,21.9,32.2,N/A,,Mostly Cloudy,150,2013-04-17 21:55:00
5:15 PM,78.8,60.8,54,29.72,10.0,SSE,16.1,23.0,N/A,,Overcast,150,2013-04-17 22:15:00
5:35 PM,80.6,60.8,51,29.71,10.0,SSE,13.8,26.5,N/A,,Overcast,150,2013-04-17 22:35:00
5:55 PM,80.6,60.8,51,29.70,10.0,SSE,19.6,29.9,N/A,,Mostly Cloudy,150,2013-04-17 22:55:00
6:15 PM,80.6,59.0,48,29.69,10.0,SE,20.7,27.6,N/A,,Scattered Clouds,140,2013-04-17 23:15:00
6:35 PM,78.8,59.0,51,29.70,10.0,SSE,18.4,25.3,N/A,,Mostly Cloudy,160,2013-04-17 23:35:00
6:55 PM,78.8,59.0,51,29.69,10.0,SSE,16.1,24.2,N/A,,Mostly Cloudy,150,2013-04-17 23:55:00
7:15 PM,78.8,59.0,51,29.69,10.0,SSE,15.0,24.2,N/A,,Scattered Clouds,150,2013-04-18 00:15:00
7:35 PM,77.0,59.0,54,29.68,10.0,SSE,15.0,20.7,N/A,,Clear,150,2013-04-18 00:35:00
7:55 PM,77.0,59.0,54,29.67,10.0,SSE,11.5,23.0,N/A,,Clear,160,2013-04-18 00:55:00
8:15 PM,77.0,59.0,54,29.67,10.0,SSE,15.0,21.9,N/A,,Clear,150,2013-04-18 01:15:00
8:35 PM,77.0,59.0,54,29.66,10.0,SSE,12.7,25.3,N/A,,Clear,150,2013-04-18 01:35:00
8:55 PM,77.0,59.0,54,29.67,10.0,SSE,13.8,23.0,N/A,,Clear,150,2013-04-18 01:55:00
9:15 PM,75.2,60.8,61,29.67,10.0,SSE,9.2,18.4,N/A,,Scattered Clouds,150,2013-04-18 02:15:00
9:35 PM,75.2,60.8,61,29.68,10.0,SSE,12.7,17.3,N/A,,Mostly Cloudy,150,2013-04-18 02:35:00
9:55 PM,75.2,60.8,61,29.67,10.0,SE,16.1,-,N/A,,Mostly Cloudy,140,2013-04-18 02:55:00
10:15 PM,73.4,60.8,65,29.68,10.0,SSE,15.0,21.9,N/A,,Scattered Clouds,160,2013-04-18 03:15:00
10:35 PM,73.4,60.8,65,29.67,10.0,SSE,13.8,26.5,N/A,,Scattered Clouds,160,2013-04-18 03:35:00
10:55 PM,73.4,62.6,69,29.66,10.0,SSE,17.3,23.0,N/A,,Mostly Cloudy,150,2013-04-18 03:55:00
11:15 PM,73.4,62.6,69,29.66,10.0,SSE,19.6,25.3,N/A,,Scattered Clouds,150,2013-04-18 04:15:00
11:35 PM,73.4,62.6,69,29.66,10.0,SSE,13.8,20.7,N/A,,Mostly Cloudy,150,2013-04-18 04:35:00
11:55 PM,73.4,62.6,69,29.65,10.0,SSE,17.3,25.3,N/A,,Scattered Clouds,160,2013-04-18 04:55:00